{"data":{"norad_id":69424,"epoch":"2026-09-19T08:52:55.113312Z","epoch_age_seconds":126523,"freshness":"FRESH","line1":"1 69424U 26126E   26262.37008233  .00013474  00000+0  41867-3 0  9993","line2":"2 69424  97.2844 123.6582 0001599  96.1403 264.0022 15.33464377 17350","mean_motion":15.33464377,"eccentricity":0.0001599,"inclination_deg":97.2844,"raan_deg":123.6582,"arg_perigee_deg":96.1403,"mean_anomaly_deg":264.0022,"bstar":0.00041867,"rev_number":1735,"period_min":93.905018049206,"perigee_km":464.3912275247,"apogee_km":466.57981800749,"semimajor_km":6843.6225227661,"source":"CELESTRAK","updated_at":"2026-09-20T09:00:44.194820Z"}}